Zurück zum Katalog

STARLINK-30268

AktivKommunikationVLEO
NORAD 57531·PAYLOAD·🇺🇸 United States

Gestartet Aug 8, 2023 von Vandenberg Space Force Base

Loading…

Nächste Überflüge (nächste 24 Stunden)

TLE

AktuellSource: CelesTrak SupGP

Epoche: Sep 15, 2026, 01:35 UTC

1 57531C 23115L   26258.06645833 -.00076588  00000+0 -27742-2 0  2588
2 57531  43.0040  12.4901 0001486 260.0386 314.1826 15.27614421    14

Verfolge STARLINK-30268 in Echtzeit mit AllMySat

Download on the App Store